RH
2 2 2 2 2 2 2 2 2 2 3 3 3 3 4 4 5 6 7 8 9 9 9 9 9 9 9 8 8 8 8 8 7 7 6 6 6 7 7 7 7 7
2 2 2 2 2 2 2 2 2 2 2 2 3 3 3 4 4 4 5 6 7 7 8 9 9 9 9 9 9 8 8 7 7 7 6 6 6 6 7 7 7 7
2 2 2 2 2 2 2 2 2 2 3 2 2 2 2 3 3 3 4 4 5 5 6 7 7 8 9 9 9 8 8 7 7 7 6 6 6 6 7 7 7 7
2 2 2 2 2 2 2 2 2 2 2 2 3 2 2 3 3 3 3 3 4 4 4 5 5 6 6 7 8 8 8 8 7 8 7 7 7 6 7 7 7 7
2 2 3 2 2 2 2 2 2 2 2 2 2 2 2 2 2 3 3 3 3 3 3 4 4 4 4 5 6 6 7 7 7 7 7 7 7 7 7 7 7 7
2 2 3 3 3 2 2 2 2 2 2 2 2 2 2 2 2 3 2 2 3 2 3 3 3 4 4 4 4 5 5 6 6 6 6 7 7 6 7 7 7 7
2 2 2 2 3 3 2 3 2 2 2 2 2 2 2 2 2 2 2 2 3 2 3 3 3 3 3 3 4 4 4 5 5 5 5 6 6 6 6 6 6 6
2 2 2 2 3 2 2 3 2 3 3 2 3 2 2 2 2 2 2 2 2 3 3 3 3 3 3 3 3 3 4 4 4 4 5 5 5 5 5 5 5 6
2 2 2 2 2 2 2 3 2 3 3 3 3 3 2 3 2 2 2 2 2 3 2 2 3 3 2 2 3 3 3 3 3 3 4 4 4 4 5 4 5 5
2 2 2 2 2 2 3 2 2 3 3 3 3 3 3 3 3 3 2 2 3 2 2 3 2 2 2 2 2 2 3 3 3 3 3 3 3 4 4 4 4 4
2 2 2 3 2 2 3 2 3 3 3 3 3 3 3 3 3 3 3 3 3 2 3 2 2 3 2 2 2 2 3 3 2 3 3 3 3 3 3 3 3 3
3 3 3 3 3 3 3 3 3 3 3 3 3 3 3 3 3 3 3 3 3 3 3 3 3 3 2 3 3 2 2 2 2 2 2 2 2 2 3 3 3 3
3 3 3 3 3 3 3 3 3 3 3 3 3 3 3 3 3 3 3 3 3 3 3 3 3 3 3 3 2 2 2 2 2 2 2 2 2 2 3 2 2 3
3 4 3 3 3 3 3 3 3 3 3 3 3 3 3 3 3 3 3 3 3 3 3 3 3 3 3 3 3 3 3 2 2 2 2 2 2 2 3 2 2 3
4 4 4 4 4 4 4 4 4 4 4 4 3 3 3 3 3 3 3 3 3 3 3 3 3 3 3 3 3 3 3 3 3 3 2 3 3 2 3 2 2 3
4 4 4 4 4 4 5 4 4 4 4 4 4 4 4 4 4 4 4 4 4 4 4 4 4 4 4 3 3 3 3 3 3 3 3 3 3 3 3 3 3 3
4 4 4 4 4 4 4 4 4 4 4 4 4 4 4 4 4 4 4 4 4 4 4 4 4 4 4 4 4 4 3 3 3 3 3 3 3 3 3 3 3 3
4 4 4 3 3 4 4 4 4 4 4 5 4 4 5 4 4 4 4 4 4 4 4 4 4 4 4 4 4 4 4 4 3 3 3 3 3 3 3 3 3 3
4 4 3 3 3 3 3 4 4 4 4 4 4 4 4 4 4 4 4 3 3 3 4 4 4 4 4 4 4 4 4 4 4 4 4 4 4 3 3 3 3 3
4 4 3 4 4 4 4 4 4 4 4 4 4 4 4 4 4 3 3 3 3 3 3 3 3 3 3 3 3 4 4 4 4 4 4 4 4 4 3 3 3 3
4 4 3 4 4 4 4 4 4 4 4 4 4 3 3 3 3 3 3 3 3 3 3 3 3 3 3 3 3 3 3 4 4 4 4 4 4 4 4 4 4 4
4 4 4 4 4 4 4 4 4 4 4 4 3 3 3 3 3 3 3 3 3 3 3 4 3 3 3 3 3 3 3 3 4 4 4 4 4 4 4 4 4 4
4 4 4 4 4 4 4 4 4 4 3 3 3 3 3 3 3 3 3 3 3 3 3 3 3 3 3 3 3 3 3 3 3 4 4 4 4 4 4 4 4 4
4 4 4 4 4 4 4 4 4 3 3 3 3 3 3 3 3 3 3 3 3 3 3 3 2 2 3 3 3 3 3 3 3 3 3 4 4 4 4 4 4 4
3 4 3 4 4 4 4 4 3 3 3 3 3 3 3 3 3 3 3 3 3 3 2 2 2 2 2 2 3 2 3 3 3 3 3 3 3 4 4 4 4 4
3 3 3 3 3 3 3 3 3 3 3 3 3 3 4 4 4 3 3 3 3 3 3 2 2 2 2 2 2 2 2 2 2 3 3 3 3 3 3 4 4 4
Wind_Speed
86 87 86 85 84 84 85 86 86 86 86 88 90 92 94 97 99 102 104 105 107 107 108 110 112 113 114 115 116 116 116 116 115 115 113 111 110 110 111 112 113 113
79 81 82 82 82 81 81 82 83 83 84 85 85 86 89 92 94 97 100 101 103 104 105 107 108 110 111 113 113 114 114 114 114 114 113 111 109 109 110 111 112 113
72 74 75 77 78 78 78 78 79 80 81 82 82 83 84 86 89 91 94 96 98 100 102 104 105 106 108 109 111 111 111 111 111 112 112 110 109 108 109 110 111 112
67 68 69 71 72 74 74 75 76 76 77 78 79 80 80 81 83 85 88 90 93 95 97 99 101 102 104 105 107 108 108 108 109 109 109 109 108 107 107 109 111 112
62 63 65 66 67 69 70 71 72 73 73 74 75 76 76 77 78 80 82 84 86 88 91 93 95 97 99 100 102 103 103 104 105 106 107 107 106 106 107 108 110 110
58 59 61 62 64 65 66 67 69 70 70 71 72 73 73 74 75 76 77 79 80 82 84 86 88 90 93 95 96 97 98 100 101 102 104 104 105 105 106 107 108 109
54 56 58 59 60 62 62 64 65 66 67 68 69 70 70 71 73 73 75 75 76 78 80 81 83 85 87 89 90 91 93 94 96 99 100 101 102 104 105 106 107 108
51 53 54 56 57 58 59 60 62 63 65 66 67 68 68 69 70 71 72 73 73 74 76 78 80 81 83 84 85 86 88 90 92 95 96 98 100 101 102 103 104 106
50 50 51 53 54 55 56 57 58 60 61 63 65 66 67 67 68 69 70 70 71 72 74 75 77 78 79 80 81 82 84 86 89 91 93 94 96 97 99 100 101 102
49 49 49 51 51 52 53 54 55 56 58 60 62 63 65 66 67 68 68 68 69 70 71 72 73 74 75 76 76 78 80 82 85 87 89 90 91 93 95 96 97 98
47 47 48 49 50 51 51 52 52 53 55 57 59 60 62 63 65 65 66 66 67 67 68 69 70 71 72 72 73 74 76 78 80 82 84 85 87 88 90 92 93 94
43 43 45 46 47 48 49 49 50 51 53 54 56 58 59 60 61 62 63 64 64 65 66 66 67 68 68 69 70 71 72 74 75 77 79 80 81 83 85 87 89 90
39 39 40 41 43 44 44 45 46 48 49 51 53 54 55 56 57 58 59 60 61 62 63 63 64 65 66 67 67 68 68 69 70 72 73 74 75 77 79 81 82 83
37 37 37 38 39 40 41 41 42 43 45 47 48 49 50 51 53 54 55 57 58 59 59 60 61 62 63 64 65 65 65 65 66 67 68 69 70 73 75 76 77 77
37 37 37 37 38 38 38 39 40 41 43 44 45 45 46 47 48 49 51 52 53 54 55 57 58 59 61 61 62 62 62 63 64 65 65 66 67 69 71 72 72 73
36 36 37 37 37 37 37 37 39 40 41 41 42 43 44 45 45 46 47 48 48 50 51 53 54 56 57 58 59 59 60 61 62 63 63 64 65 66 68 69 69 69
35 36 37 37 36 35 35 36 38 39 39 39 40 41 42 43 44 44 44 45 45 47 48 49 51 53 55 55 56 56 57 58 59 60 61 62 63 64 65 66 66 67
36 36 37 36 35 34 34 35 36 37 37 37 38 39 40 41 42 42 42 42 44 45 46 47 48 51 52 52 52 53 54 55 55 57 58 59 60 62 62 63 63 64
37 37 37 36 35 34 34 34 35 35 36 37 37 38 38 39 39 39 40 41 41 42 42 44 45 47 48 48 49 50 51 51 52 53 55 57 59 59 59 60 61 62
36 36 36 36 35 35 35 34 35 36 36 37 37 37 37 38 38 38 38 39 38 38 39 40 42 43 43 43 44 45 46 47 48 50 53 55 57 58 57 58 59 60
33 34 34 33 34 34 34 34 35 35 36 36 37 37 37 37 37 37 37 36 36 36 37 38 40 40 39 38 39 40 42 43 44 47 50 53 55 55 55 56 58 58
31 31 31 31 32 33 33 33 34 34 35 35 36 36 35 35 35 35 35 34 33 34 35 37 37 37 36 36 37 38 39 40 41 44 48 52 52 52 53 55 56 56
30 30 30 30 32 32 32 33 33 33 34 34 34 34 33 33 33 33 32 32 31 31 33 34 34 33 34 35 37 37 38 39 41 43 46 48 48 48 50 53 54 54
29 29 29 30 31 32 32 32 33 33 33 33 33 32 31 31 31 31 30 30 29 30 31 31 31 31 33 35 36 37 38 39 41 42 43 45 45 46 48 50 51 51
28 28 28 28 29 30 31 31 31 31 31 31 30 30 29 29 29 29 29 29 29 30 30 29 30 31 32 34 35 36 37 38 39 40 41 42 43 45 46 47 48 48
26 26 26 27 27 28 29 29 29 28 28 28 27 27 27 28 28 29 29 29 29 30 29 28 29 29 30 32 33 34 35 35 36 37 38 40 41 43 45 46 47 47
Wind_Direction
266 266 266 264 262 261 260 260 259 258 256 254 252 251 251 250 248 248 248 249 249 249 249 250 250 251 251 252 252 252 253 254 254 255 255 254 253 253 252 252 253 253
265 265 266 266 265 263 261 260 259 259 258 256 254 252 251 250 249 248 248 248 248 249 249 249 250 250 251 252 252 253 253 253 253 254 254 253 252 252 252 252 252 252
266 266 265 265 265 264 263 262 260 259 258 257 256 254 252 250 250 249 248 248 248 248 248 248 248 249 250 251 252 253 253 253 253 254 254 253 253 252 251 251 251 251
267 266 265 264 264 263 263 262 261 259 258 258 257 256 254 252 251 250 249 248 248 248 248 248 248 248 248 249 250 251 252 253 253 253 253 253 253 252 251 251 251 251
267 266 265 264 263 262 262 262 261 260 259 258 257 257 256 255 253 252 251 250 249 248 248 248 248 248 248 248 249 250 250 251 252 252 253 253 252 252 251 251 251 251
267 266 265 264 263 262 261 261 261 261 260 259 258 258 257 256 255 254 252 251 251 250 249 248 248 248 248 248 248 249 249 250 250 251 251 251 251 251 251 250 250 251
269 267 266 265 264 263 262 261 261 261 261 260 259 259 258 257 256 255 254 253 252 251 251 250 249 249 248 248 248 248 249 249 249 249 250 250 250 250 250 250 250 250
270 269 268 266 265 264 263 262 261 261 261 261 260 259 259 258 257 256 255 254 253 252 251 251 250 249 249 248 248 248 248 248 248 248 248 249 249 249 249 249 249 249
271 269 269 268 267 266 264 263 262 261 261 261 261 260 260 259 258 257 256 255 254 253 252 252 251 251 250 249 248 247 247 247 247 247 247 247 248 248 249 249 249 249
272 270 269 268 268 266 265 264 262 262 261 260 260 260 259 259 258 258 257 257 256 255 254 253 253 253 252 251 250 249 248 248 247 247 247 247 247 247 248 248 248 249
275 273 270 268 267 266 265 264 262 261 261 260 260 259 259 258 258 258 258 258 257 257 256 255 255 254 254 253 252 251 250 249 249 248 248 248 247 247 247 247 247 248
276 274 272 269 267 265 264 263 262 262 261 260 260 259 259 259 259 259 258 258 258 257 257 256 256 255 255 254 253 252 251 250 250 249 249 249 249 248 248 247 247 247
275 273 271 269 268 266 264 263 262 261 261 261 260 260 260 260 260 259 259 259 258 258 257 257 257 256 256 255 254 253 252 252 251 251 250 250 250 250 250 249 249 248
274 271 269 268 267 266 265 265 264 263 261 261 260 260 259 259 259 260 260 260 259 259 258 258 257 257 256 256 255 255 254 253 253 252 251 251 251 250 250 250 250 249
274 271 268 266 265 264 264 265 265 264 264 263 262 261 260 259 258 258 258 258 259 259 260 259 258 258 257 256 255 255 255 254 253 252 251 250 250 250 250 249 249 249
276 272 269 266 264 264 264 264 264 264 263 264 265 265 264 263 262 260 260 259 258 258 258 258 257 257 256 256 255 254 253 252 252 251 250 249 249 249 249 249 248 248
281 277 273 271 268 266 266 266 266 266 266 266 265 265 265 265 264 263 263 262 261 260 259 258 257 256 255 254 253 252 252 251 251 250 250 249 248 248 248 248 248 248
285 282 280 278 276 274 271 270 271 271 271 270 268 266 266 265 265 263 262 261 260 259 258 258 257 257 256 255 253 252 251 250 250 250 249 249 248 247 247 247 247 246
288 287 286 285 284 283 281 279 278 277 276 274 273 271 270 268 267 266 264 262 260 258 257 256 255 254 255 255 254 253 251 249 248 248 248 248 247 246 245 245 245 244
289 289 289 289 289 287 285 283 282 280 278 277 276 274 272 271 269 268 266 265 264 262 261 259 257 254 253 251 251 251 250 249 247 246 245 245 245 245 244 244 243 242
290 290 290 289 288 286 285 283 281 279 278 277 276 274 272 271 270 269 268 267 266 265 263 262 260 257 254 252 249 248 247 245 244 244 244 243 242 242 242 242 242 242
293 292 291 290 288 286 285 283 281 280 278 276 275 274 274 273 272 271 270 268 265 263 262 260 258 257 255 253 250 246 244 243 241 241 242 242 242 240 240 240 241 241
295 293 292 290 288 287 286 284 282 280 278 276 275 275 276 275 275 273 271 269 265 262 259 258 256 254 253 252 249 246 242 240 238 238 239 242 242 241 240 239 239 240
294 293 292 290 289 288 286 284 282 280 279 279 278 278 277 276 275 273 272 269 267 263 259 258 256 253 250 249 247 245 242 240 238 238 239 241 242 242 242 241 240 239
295 294 293 292 291 288 286 284 283 283 282 282 281 280 279 277 276 274 272 270 268 265 261 259 256 253 249 247 246 244 243 240 239 238 238 239 241 242 242 243 243 242
298 298 297 296 293 292 290 289 288 288 287 287 286 284 282 280 278 276 274 272 270 267 264 261 257 253 249 247 245 244 243 242 240 238 237 237 238 238 239 240 241 242